Wind_Speed
14 12 11 10 9 9 9 9 9 10 12 14 14 13 6 2 5 6 7 6 5 5 5 5 6 7 8 10 10 10 10 11 11 13 12 12 12 12 12 12 13 14
14 13 12 11 10 10 11 10 10 11 14 14 14 9 1 6 6 7 7 6 5 5 5 6 6 7 8 10 10 10 10 11 12 12 11 11 11 11 12 13 13 14
14 13 13 12 12 13 12 10 11 13 14 13 11 3 6 8 7 8 7 6 5 5 5 6 6 7 8 10 10 10 10 10 11 11 10 11 11 11 12 13 13 14
15 14 13 13 14 15 12 10 12 14 12 11 6 4 9 8 8 8 7 7 6 5 5 6 6 7 9 10 10 9 9 9 10 11 10 11 11 11 12 13 13 14
14 14 13 15 17 15 12 13 14 12 10 8 3 9 10 8 8 8 7 7 6 6 6 6 7 8 9 9 9 8 8 9 10 10 9 10 11 11 12 12 13 14
14 15 17 18 17 14 14 15 12 9 9 6 7 11 10 9 9 8 8 8 7 7 6 6 7 7 8 8 8 7 7 8 9 9 9 10 10 11 11 12 12 13
19 19 20 19 16 16 16 13 9 9 8 6 10 11 10 11 10 9 9 8 8 7 7 7 6 6 7 7 7 7 7 8 9 8 8 9 9 9 10 11 11 12
22 21 19 18 17 17 15 11 9 9 7 9 13 12 12 12 10 10 9 8 8 7 7 7 6 5 5 6 7 7 7 8 8 8 7 8 8 8 9 10 11 12
21 20 19 19 18 16 13 11 10 8 7 12 14 12 12 12 10 10 9 9 8 7 7 6 5 5 5 6 6 7 7 7 7 7 7 7 8 8 9 9 10 12
21 20 20 19 16 15 13 11 10 8 10 14 14 12 12 11 10 10 9 9 8 8 7 6 5 5 4 5 6 6 6 6 6 6 6 7 7 7 8 9 10 12
20 20 19 18 16 15 13 12 11 9 12 14 13 12 11 10 10 10 10 9 8 8 7 6 6 5 4 5 6 6 6 6 6 6 6 7 8 8 8 9 10 12
20 20 19 17 16 15 14 13 11 10 13 14 13 12 11 10 10 10 10 9 9 9 8 7 6 5 5 5 5 6 6 6 5 6 6 7 8 8 8 9 10 11
20 19 18 17 16 16 14 13 12 12 14 14 13 13 11 11 11 10 10 10 9 9 8 7 7 6 5 5 5 6 6 6 5 6 6 7 8 8 8 9 10 11
19 18 17 17 17 16 15 14 13 15 16 15 14 13 12 12 11 10 10 10 10 10 9 8 7 6 5 5 5 5 6 6 6 6 7 7 7 7 8 8 9 10
18 18 17 17 18 17 16 15 15 16 16 15 14 13 13 13 12 11 10 10 10 10 9 9 8 7 6 5 5 5 6 6 6 7 6 6 6 6 7 7 8 9
19 19 18 19 19 17 15 14 15 16 16 15 13 13 13 13 13 13 12 11 10 10 10 9 8 7 6 6 5 5 6 6 5 6 5 5 5 5 6 6 7 8
20 20 20 20 19 17 15 15 16 16 15 14 13 13 13 14 14 13 12 12 11 10 10 9 8 7 7 6 6 6 5 5 5 4 4 4 3 4 4 5 7 7
21 21 20 20 19 16 15 15 16 17 15 13 13 13 14 15 14 13 12 12 12 11 11 10 9 8 7 6 6 6 5 5 4 4 3 3 2 2 3 5 6 6
21 21 21 20 19 16 16 16 17 17 17 15 14 14 15 15 14 13 13 12 12 12 11 10 9 8 7 7 6 6 6 5 4 4 3 2 1 1 2 4 4 5
22 22 21 21 19 18 18 16 17 18 18 16 16 16 16 15 14 13 13 13 13 13 12 11 10 9 8 7 6 6 5 5 4 3 3 2 1 0 1 2 3 4
24 23 22 22 22 21 19 16 18 20 18 16 16 16 15 14 13 13 14 14 14 13 12 11 10 10 9 7 7 6 5 4 4 3 3 2 1 1 0 1 3 4
26 25 24 24 23 22 20 17 18 20 18 17 16 16 15 15 14 14 14 14 14 14 13 12 11 10 9 7 6 6 5 4 4 3 3 3 2 2 1 1 2 4
26 25 24 23 23 23 21 18 19 20 18 17 17 17 17 16 15 15 15 15 15 15 13 12 11 9 8 7 6 6 6 5 5 4 4 4 3 2 1 1 2 4
24 24 23 22 23 24 21 19 20 21 18 16 16 16 17 16 16 17 17 16 15 14 13 12 11 10 9 8 7 7 6 6 5 6 5 4 3 2 1 1 2 4
24 24 24 23 24 23 20 19 21 20 18 17 16 16 17 17 17 18 18 17 16 15 14 13 12 11 10 9 8 7 7 7 7 6 6 5 4 2 1 1 3 4
24 24 24 24 24 23 20 20 21 21 19 18 18 18 18 18 18 18 18 18 17 16 15 13 12 11 10 9 8 7 7 7 7 6 6 5 4 3 2 2 3 4
Wind_Direction
209 214 217 222 233 248 255 255 261 280 292 291 298 314 327 124 138 132 125 122 120 116 108 98 90 82 77 77 72 65 62 57 56 54 50 47 46 44 44 45 44 41
209 212 215 224 236 242 242 246 261 281 286 287 302 319 93 138 139 135 130 127 125 119 109 97 88 81 76 74 68 62 58 54 54 54 49 47 47 45 45 46 43 40
209 212 217 229 237 235 235 244 266 279 280 290 309 318 141 141 144 142 136 132 129 122 112 99 89 84 77 72 67 61 56 53 54 54 50 50 49 48 48 46 42 40
209 214 219 227 229 228 232 249 270 276 280 296 302 165 149 147 149 145 139 136 132 125 117 106 93 84 76 72 68 60 55 55 56 55 52 53 53 50 49 46 42 40
211 214 217 221 222 225 238 258 270 273 283 292 234 160 153 153 153 148 143 141 136 131 123 107 93 83 76 73 69 62 58 58 62 61 57 57 57 52 50 48 42 40
212 212 214 217 220 231 250 261 263 264 277 268 180 160 157 157 157 153 148 145 138 132 121 105 95 85 80 76 70 66 64 66 70 70 64 62 60 55 53 50 43 41
214 211 213 217 226 241 252 257 255 258 266 218 169 163 162 160 161 156 150 146 137 131 120 109 101 90 86 81 75 73 72 76 79 78 71 66 62 58 55 51 46 45
213 212 215 224 236 244 248 250 251 256 240 185 169 167 165 162 161 155 149 145 139 133 126 121 113 103 95 86 82 80 79 83 85 82 75 69 66 62 57 53 50 48
214 218 227 235 239 240 242 245 248 246 205 176 170 169 167 163 159 154 150 148 145 141 136 132 126 118 106 94 90 86 84 89 90 86 80 74 73 69 61 58 54 50
218 225 233 236 235 234 237 238 238 228 188 171 169 171 171 166 162 158 155 153 150 147 143 139 136 130 117 105 101 96 94 95 93 90 87 84 81 74 66 59 52 49
223 228 230 230 228 229 229 229 230 212 179 170 170 173 172 171 170 164 159 158 155 151 148 146 147 140 127 118 112 109 106 101 97 96 95 93 84 73 64 56 49 46
225 226 225 224 224 222 220 223 223 198 175 171 172 173 175 174 173 168 163 161 158 156 155 155 156 151 139 132 124 118 113 106 101 102 100 92 80 70 61 51 47 44
224 224 223 221 219 214 215 221 213 187 175 175 174 175 176 175 173 170 169 167 163 162 161 161 163 160 150 143 134 124 118 112 109 106 100 90 77 68 60 50 45 43
223 222 219 217 212 209 214 216 199 181 176 178 180 178 175 175 174 174 175 174 169 165 165 168 169 168 160 150 140 129 124 122 116 108 99 90 78 66 58 49 43 41
222 219 214 211 206 207 213 207 191 183 181 180 181 181 177 175 176 177 179 178 173 168 169 173 175 173 166 154 145 137 134 132 123 111 102 90 78 64 56 48 40 37
219 215 210 206 204 207 210 201 190 189 188 183 182 181 179 179 179 178 178 176 174 172 172 177 180 177 170 160 154 149 143 140 131 119 110 97 80 62 50 44 38 33
215 210 205 202 203 204 201 195 193 194 193 189 184 182 182 183 182 180 179 175 172 173 176 181 183 179 175 170 164 158 152 147 142 133 121 107 89 65 46 39 35 29
212 206 202 201 200 198 194 192 192 192 193 192 188 185 185 184 182 181 179 174 171 174 179 183 186 182 179 178 172 166 163 156 151 146 134 116 98 66 41 35 31 25
212 204 202 201 197 191 188 189 191 192 192 190 188 188 187 184 182 179 176 175 173 176 181 184 186 185 183 184 179 172 169 164 161 157 150 143 125 54 30 31 26 21
212 205 203 200 195 189 186 190 197 196 192 189 189 191 187 182 182 178 175 175 174 176 182 184 185 187 188 187 182 177 174 168 165 161 159 173 181 60 12 19 19 18
211 206 201 199 196 190 189 197 201 196 192 191 191 191 187 181 180 178 176 176 176 177 179 182 184 186 188 187 183 181 179 173 172 172 170 186 196 186 337 2 13 17
210 203 199 199 196 192 195 203 199 192 193 194 191 189 184 179 179 179 178 178 178 177 177 180 184 185 185 187 185 184 185 185 187 189 190 197 198 188 208 355 15 18
210 205 202 202 198 197 201 203 196 192 193 193 191 188 182 178 179 179 178 179 179 177 176 179 182 184 185 186 187 189 193 196 196 198 201 202 191 182 185 14 16 19
211 209 209 207 205 204 204 200 193 193 193 191 190 188 182 180 181 179 177 178 179 178 179 182 183 186 188 188 190 195 198 199 199 199 198 192 177 170 159 44 16 17
210 209 209 210 209 208 205 198 194 193 191 187 186 186 184 183 182 181 180 178 178 180 183 185 185 188 192 192 192 195 196 194 193 190 185 173 161 155 130 52 24 20
209 207 208 209 209 208 204 198 195 194 191 186 183 183 186 185 183 183 183 180 179 183 186 187 187 190 193 194 192 192 190 187 185 178 168 158 149 142 120 70 40 28
Height
1550 1551 1553 1554 1555 1556 1556 1557 1558 1558 1558 1558 1557 1557 1557 1557 1558 1559 1560 1560 1561 1561 1562 1562 1562 1563 1563 1563 1563 1563 1563 1563 1563 1562 1562 1562 1562 1562 1562 1562 1562 1562
1548 1550 1551 1553 1553 1554 1555 1556 1556 1557 1557 1556 1556 1556 1556 1556 1557 1558 1560 1560 1561 1561 1561 1562 1562 1562 1563 1563 1563 1563 1563 1563 1563 1562 1563 1562 1562 1562 1561 1561 1561 1561
1547 1549 1550 1551 1552 1553 1554 1554 1555 1555 1555 1555 1554 1555 1555 1556 1557 1558 1559 1560 1560 1561 1561 1562 1562 1562 1563 1563 1563 1563 1563 1563 1563 1563 1563 1562 1562 1561 1561 1561 1561 1561
1546 1547 1549 1550 1550 1552 1552 1553 1554 1554 1553 1553 1553 1554 1555 1556 1557 1558 1559 1559 1560 1561 1561 1561 1562 1562 1562 1563 1563 1563 1563 1563 1563 1563 1563 1562 1561 1561 1561 1561 1561 1561
1544 1546 1547 1548 1549 1550 1551 1552 1552 1552 1552 1552 1553 1554 1555 1555 1557 1558 1558 1559 1560 1560 1561 1561 1562 1562 1562 1563 1563 1563 1564 1563 1563 1563 1562 1562 1561 1561 1561 1561 1561 1561
1542 1544 1545 1546 1548 1549 1550 1550 1551 1551 1551 1551 1552 1553 1554 1555 1556 1557 1558 1559 1559 1560 1560 1561 1561 1562 1562 1563 1563 1564 1564 1563 1563 1563 1563 1562 1562 1561 1561 1561 1561 1561
1540 1542 1543 1545 1546 1547 1548 1549 1549 1549 1549 1550 1551 1552 1553 1555 1556 1557 1558 1558 1559 1559 1560 1560 1561 1562 1562 1563 1563 1563 1563 1563 1563 1563 1563 1562 1562 1561 1561 1561 1561 1561
1539 1541 1542 1543 1545 1546 1546 1547 1547 1548 1548 1549 1550 1551 1553 1554 1555 1556 1557 1558 1558 1559 1560 1560 1561 1562 1562 1562 1563 1563 1563 1563 1563 1563 1563 1563 1562 1562 1561 1561 1562 1562
1538 1539 1541 1542 1543 1544 1545 1545 1546 1546 1547 1548 1549 1551 1552 1553 1554 1555 1556 1557 1558 1559 1559 1560 1561 1561 1562 1562 1562 1563 1563 1563 1563 1563 1563 1563 1563 1562 1562 1562 1562 1562
1536 1537 1539 1540 1541 1542 1543 1544 1544 1545 1546 1547 1549 1550 1551 1552 1553 1555 1556 1557 1558 1558 1559 1560 1560 1561 1561 1562 1562 1562 1563 1563 1563 1563 1563 1563 1563 1563 1562 1562 1562 1562
1534 1535 1537 1538 1539 1540 1541 1543 1543 1544 1545 1546 1548 1549 1550 1552 1553 1554 1555 1556 1557 1558 1558 1559 1560 1560 1561 1561 1562 1562 1562 1563 1563 1563 1563 1563 1563 1563 1562 1562 1562 1561
1532 1534 1535 1536 1538 1539 1540 1541 1542 1543 1545 1546 1547 1549 1550 1551 1552 1553 1555 1556 1557 1557 1558 1559 1559 1560 1560 1561 1561 1562 1562 1562 1562 1563 1563 1563 1563 1562 1562 1562 1561 1561
1531 1532 1533 1535 1536 1538 1539 1540 1541 1542 1543 1545 1547 1548 1549 1550 1551 1553 1554 1555 1556 1557 1557 1558 1559 1559 1560 1560 1561 1561 1562 1562 1562 1563 1563 1563 1563 1562 1562 1562 1561 1561
1529 1530 1532 1533 1535 1537 1538 1539 1540 1541 1542 1544 1546 1546 1548 1549 1550 1552 1553 1554 1555 1556 1557 1558 1558 1559 1559 1560 1560 1561 1561 1562 1562 1562 1563 1563 1563 1562 1562 1562 1561 1561
1527 1528 1530 1532 1534 1536 1537 1538 1539 1540 1541 1543 1545 1546 1547 1548 1549 1550 1552 1553 1554 1555 1556 1557 1557 1558 1559 1559 1560 1560 1561 1561 1562 1562 1562 1562 1563 1562 1562 1562 1561 1561
1525 1527 1529 1530 1532 1534 1536 1538 1539 1541 1542 1543 1544 1545 1547 1548 1549 1549 1551 1552 1553 1554 1555 1556 1557 1558 1558 1559 1559 1560 1561 1561 1561 1562 1562 1562 1562 1562 1562 1562 1561 1561
1523 1525 1527 1529 1531 1533 1535 1537 1539 1540 1542 1543 1544 1545 1546 1547 1548 1549 1550 1551 1552 1553 1555 1555 1556 1557 1557 1558 1559 1559 1560 1560 1561 1561 1561 1562 1562 1562 1562 1562 1561 1561
1521 1523 1525 1527 1529 1532 1534 1535 1537 1538 1541 1543 1544 1545 1546 1547 1547 1548 1549 1550 1551 1553 1554 1555 1556 1556 1557 1558 1558 1559 1560 1560 1561 1561 1561 1561 1561 1561 1562 1561 1561 1561
1519 1521 1523 1525 1528 1530 1532 1534 1535 1537 1539 1541 1543 1544 1545 1546 1546 1547 1548 1549 1550 1552 1553 1554 1555 1556 1556 1557 1558 1559 1559 1560 1560 1560 1560 1561 1561 1561 1561 1561 1561 1561
1517 1519 1521 1524 1526 1528 1530 1532 1534 1536 1537 1539 1541 1543 1543 1544 1545 1546 1547 1548 1549 1551 1552 1553 1554 1555 1556 1557 1558 1558 1559 1559 1560 1560 1560 1560 1560 1560 1560 1560 1560 1560
1514 1517 1519 1522 1524 1527 1529 1531 1533 1534 1536 1538 1540 1542 1542 1543 1544 1545 1546 1547 1549 1550 1551 1552 1553 1555 1556 1556 1557 1558 1559 1559 1559 1559 1559 1559 1559 1560 1560 1560 1560 1559
1513 1515 1518 1520 1522 1525 1527 1529 1531 1533 1535 1537 1539 1540 1541 1542 1543 1544 1545 1547 1548 1549 1550 1551 1553 1554 1555 1556 1557 1558 1558 1559 1559 1559 1559 1559 1559 1559 1559 1559 1559 1559
1511 1514 1517 1519 1521 1523 1525 1527 1529 1532 1534 1536 1538 1539 1540 1541 1542 1543 1545 1546 1547 1548 1549 1550 1552 1553 1554 1555 1556 1557 1558 1558 1558 1558 1558 1558 1558 1558 1558 1558 1558 1558
1511 1514 1516 1518 1520 1521 1523 1526 1528 1531 1533 1535 1537 1538 1539 1540 1542 1543 1544 1545 1546 1547 1548 1549 1550 1551 1552 1553 1554 1555 1556 1557 1557 1558 1557 1557 1557 1557 1557 1558 1557 1557
1510 1512 1515 1517 1519 1520 1522 1524 1527 1530 1532 1533 1535 1537 1539 1540 1541 1542 1543 1544 1545 1546 1547 1548 1549 1550 1551 1552 1553 1554 1555 1556 1556 1557 1556 1556 1556 1557 1557 1557 1557 1557
1508 1511 1513 1515 1518 1520 1521 1523 1526 1529 1530 1532 1534 1536 1537 1539 1540 1541 1542 1543 1544 1545 1547 1548 1549 1549 1550 1551 1552 1553 1554 1555 1555 1555 1555 1555 1555 1556 1556 1556 1556 1556